AFR87GN LFPG-LFML

Flight info

Callsign AFR87GN
Flight time 1h 8m
Altitude 29000
Route LATRA DCT LAMUT DCT UTUVA DCT LERGA
Aircraft A320/M-SDE2E3FGIJ1J4RWY/HB1D1G1

Departure

Time 2026-04-30 08:26
Airport Charles de Gaulle International Airport (LFPG)

Arrival

Time 2026-04-30 09:35
Airport Marseille Provence Airport (LFML)
Time Latitude Longitude Altitude Speed Heading
2026-04-30 07:57 49.00582 2.57352 355 ft 0 kts 88°
2026-04-30 08:14 49.00582 2.57340 354 ft 4 kts 88°
2026-04-30 08:14 49.00581 2.57299 357 ft 4 kts 82°
2026-04-30 08:14 49.00573 2.57263 364 ft 4 kts 46°
2026-04-30 08:14 49.00556 2.57249 362 ft 1 kts 354°
2026-04-30 08:15 49.00555 2.57249 362 ft 0 kts 353°
2026-04-30 08:17 49.00564 2.57248 363 ft 6 kts 353°
2026-04-30 08:17 49.00618 2.57239 354 ft 8 kts 355°
2026-04-30 08:18 49.00665 2.57223 361 ft 7 kts 324°
2026-04-30 08:18 49.00679 2.57129 363 ft 11 kts 261°
2026-04-30 08:18 49.00662 2.57022 360 ft 10 kts 256°
2026-04-30 08:18 49.00652 2.56915 354 ft 13 kts 265°
2026-04-30 08:19 49.00642 2.56739 356 ft 17 kts 265°
2026-04-30 08:19 49.00633 2.56565 354 ft 16 kts 265°
2026-04-30 08:19 49.00624 2.56402 361 ft 15 kts 265°
2026-04-30 08:19 49.00616 2.56252 354 ft 14 kts 265°
2026-04-30 08:20 49.00607 2.56119 360 ft 11 kts 260°
2026-04-30 08:20 49.00589 2.56017 356 ft 9 kts 252°
2026-04-30 08:20 49.00572 2.55921 354 ft 13 kts 263°
2026-04-30 08:20 49.00565 2.55789 362 ft 11 kts 265°
2026-04-30 08:21 49.00559 2.55675 354 ft 11 kts 265°
2026-04-30 08:21 49.00554 2.55551 354 ft 11 kts 268°
2026-04-30 08:21 49.00549 2.55437 360 ft 10 kts 257°
2026-04-30 08:21 49.00503 2.55349 357 ft 12 kts 212°
2026-04-30 08:22 49.00425 2.55338 357 ft 12 kts 167°
2026-04-30 08:22 49.00336 2.55377 358 ft 14 kts 164°
2026-04-30 08:22 49.00233 2.55424 360 ft 16 kts 163°
2026-04-30 08:22 49.00116 2.55474 361 ft 18 kts 165°
2026-04-30 08:23 49.00010 2.55516 354 ft 13 kts 165°
2026-04-30 08:23 48.99921 2.55567 362 ft 15 kts 152°
2026-04-30 08:23 48.99856 2.55661 356 ft 11 kts 119°
2026-04-30 08:23 48.99829 2.55774 361 ft 12 kts 106°
2026-04-30 08:24 48.99807 2.55893 357 ft 8 kts 104°
2026-04-30 08:24 48.99795 2.55978 358 ft 7 kts 103°
2026-04-30 08:24 48.99757 2.56027 361 ft 8 kts 166°
2026-04-30 08:24 48.99702 2.56033 354 ft 7 kts 175°
2026-04-30 08:25 48.99650 2.56040 354 ft 7 kts 174°
2026-04-30 08:25 48.99614 2.56078 355 ft 6 kts 116°
2026-04-30 08:25 48.99615 2.56151 361 ft 11 kts 85°
2026-04-30 08:25 48.99639 2.56603 357 ft 79 kts 85°
2026-04-30 08:26 48.99701 2.57756 362 ft 137 kts 85°
2026-04-30 08:26 48.99772 2.59285 853 ft 142 kts 87°
2026-04-30 08:26 48.99843 2.60785 1628 ft 142 kts 87°
2026-04-30 08:26 48.99924 2.62281 2364 ft 141 kts 89°
2026-04-30 08:27 49.00006 2.63773 2998 ft 142 kts 90°
2026-04-30 08:27 49.00087 2.65269 3615 ft 142 kts 89°
2026-04-30 08:27 49.00171 2.66841 4071 ft 159 kts 89°
2026-04-30 08:27 49.00262 2.68631 4373 ft 181 kts 89°
2026-04-30 08:28 49.00366 2.70647 4674 ft 206 kts 88°
2026-04-30 08:28 49.00484 2.72941 5076 ft 229 kts 88°
2026-04-30 08:28 49.00618 2.75484 5592 ft 250 kts 87°
2026-04-30 08:28 49.00700 2.78160 6442 ft 255 kts 96°
2026-04-30 08:29 49.00483 2.80851 7342 ft 258 kts 99°
2026-04-30 08:29 49.00200 2.83570 8204 ft 262 kts 100°
2026-04-30 08:29 48.99888 2.86336 9027 ft 268 kts 101°
2026-04-30 08:29 48.99569 2.89150 9913 ft 271 kts 101°
2026-04-30 08:30 48.99257 2.91976 10579 ft 282 kts 101°
2026-04-30 08:30 48.98924 2.95043 10896 ft 303 kts 100°
2026-04-30 08:30 48.98327 2.98164 11485 ft 313 kts 117°
2026-04-30 08:30 48.96971 3.00764 12239 ft 319 kts 139°
2026-04-30 08:31 48.95014 3.02377 13057 ft 326 kts 161°
2026-04-30 08:31 48.92733 3.02681 13827 ft 337 kts 185°
2026-04-30 08:31 48.90494 3.01485 14469 ft 350 kts 210°
2026-04-30 08:31 48.88738 2.98863 15111 ft 362 kts 233°
2026-04-30 08:32 48.87381 2.95671 15757 ft 367 kts 234°
2026-04-30 08:32 48.86019 2.92379 16415 ft 370 kts 235°
2026-04-30 08:32 48.84651 2.89050 17089 ft 373 kts 235°
2026-04-30 08:32 48.83267 2.85694 17736 ft 377 kts 235°
2026-04-30 08:33 48.81863 2.82309 18374 ft 381 kts 234°
2026-04-30 08:33 48.80443 2.78896 18943 ft 384 kts 234°
2026-04-30 08:33 48.79004 2.75457 19503 ft 388 kts 234°
2026-04-30 08:33 48.77546 2.71992 20037 ft 392 kts 234°
2026-04-30 08:34 48.76069 2.68496 20581 ft 396 kts 234°
2026-04-30 08:34 48.74599 2.65020 21107 ft 399 kts 234°
2026-04-30 08:34 48.73018 2.61550 21652 ft 401 kts 227°
2026-04-30 08:34 48.71085 2.58530 22197 ft 399 kts 216°
2026-04-30 08:35 48.68832 2.56100 22757 ft 397 kts 206°
2026-04-30 08:35 48.66434 2.53982 23304 ft 401 kts 206°
2026-04-30 08:35 48.64019 2.51841 23831 ft 404 kts 206°
2026-04-30 08:35 48.61586 2.49680 24274 ft 407 kts 206°
2026-04-30 08:36 48.59136 2.47502 24750 ft 409 kts 206°
2026-04-30 08:36 48.56707 2.45343 25201 ft 412 kts 206°
2026-04-30 08:36 48.54234 2.43144 25654 ft 413 kts 206°
2026-04-30 08:36 48.51659 2.41252 26086 ft 410 kts 196°
2026-04-30 08:37 48.48930 2.40065 26494 ft 407 kts 186°
2026-04-30 08:37 48.46127 2.39601 26903 ft 404 kts 177°
2026-04-30 08:37 48.43321 2.39753 27303 ft 404 kts 173°
2026-04-30 08:37 48.40507 2.39981 27716 ft 406 kts 173°
2026-04-30 08:38 48.37671 2.40204 28075 ft 410 kts 174°
2026-04-30 08:38 48.34814 2.40425 28450 ft 412 kts 174°
2026-04-30 08:38 48.31982 2.40643 28828 ft 414 kts 174°
2026-04-30 08:38 48.29108 2.41025 29121 ft 414 kts 167°
2026-04-30 08:39 48.26365 2.42082 29163 ft 399 kts 158°
2026-04-30 08:39 48.21240 2.44819 29169 ft 387 kts 158°
2026-04-30 08:40 48.16159 2.47529 29158 ft 389 kts 158°
2026-04-30 08:40 48.11039 2.50236 29147 ft 390 kts 158°
2026-04-30 08:41 48.05944 2.52897 29152 ft 391 kts 159°
2026-04-30 08:41 48.00776 2.55448 29140 ft 391 kts 159°
2026-04-30 08:42 47.95612 2.57956 29145 ft 391 kts 159°
2026-04-30 08:42 47.90443 2.60482 29132 ft 391 kts 159°
2026-04-30 08:43 47.85303 2.63001 29120 ft 392 kts 160°
2026-04-30 08:43 47.80123 2.65537 29122 ft 392 kts 159°
2026-04-30 08:44 47.74940 2.68070 29117 ft 393 kts 159°
2026-04-30 08:44 47.69733 2.70611 29111 ft 395 kts 160°
2026-04-30 08:45 47.64539 2.73131 29100 ft 396 kts 160°
2026-04-30 08:45 47.59295 2.75678 29100 ft 397 kts 160°
2026-04-30 08:46 47.54036 2.78227 29100 ft 398 kts 161°
2026-04-30 08:46 47.48747 2.80787 29093 ft 401 kts 161°
2026-04-30 08:47 47.43469 2.83329 29101 ft 403 kts 161°
2026-04-30 08:47 47.38132 2.85894 29098 ft 404 kts 161°
2026-04-30 08:48 47.32788 2.88456 29095 ft 404 kts 162°
2026-04-30 08:48 47.27427 2.91019 29097 ft 406 kts 162°
2026-04-30 08:49 47.22052 2.93590 29089 ft 407 kts 161°
2026-04-30 08:49 47.16698 2.96145 29092 ft 408 kts 161°
2026-04-30 08:50 47.11289 2.98713 29090 ft 409 kts 162°
2026-04-30 08:50 47.05824 3.01059 29093 ft 409 kts 165°
2026-04-30 08:51 47.00327 3.03255 29093 ft 410 kts 165°
2026-04-30 08:51 46.94870 3.05450 29101 ft 409 kts 165°
2026-04-30 08:52 46.89384 3.07690 29109 ft 409 kts 165°
2026-04-30 08:52 46.83914 3.09937 29112 ft 408 kts 165°
2026-04-30 08:53 46.78451 3.12168 29120 ft 407 kts 165°
2026-04-30 08:53 46.73033 3.14380 29122 ft 407 kts 165°
2026-04-30 08:54 46.67588 3.16599 29115 ft 406 kts 165°
2026-04-30 08:54 46.62141 3.18813 29115 ft 406 kts 165°
2026-04-30 08:55 46.56692 3.21014 29111 ft 406 kts 165°
2026-04-30 08:55 46.51246 3.23210 29106 ft 407 kts 165°
2026-04-30 08:56 46.45829 3.25397 29103 ft 407 kts 165°
2026-04-30 08:56 46.40375 3.27596 29099 ft 407 kts 165°
2026-04-30 08:57 46.34915 3.29797 29102 ft 407 kts 165°
2026-04-30 08:57 46.29450 3.31982 29105 ft 407 kts 165°
2026-04-30 08:58 46.24032 3.34144 29116 ft 406 kts 165°
2026-04-30 08:58 46.18582 3.36320 29116 ft 406 kts 165°
2026-04-30 08:59 46.13143 3.38487 29118 ft 405 kts 165°
2026-04-30 08:59 46.07707 3.40665 29132 ft 405 kts 165°
2026-04-30 09:00 46.02288 3.42821 29115 ft 404 kts 165°
2026-04-30 09:00 45.96910 3.44936 29122 ft 403 kts 165°
2026-04-30 09:01 45.91504 3.47063 29117 ft 403 kts 165°
2026-04-30 09:01 45.86104 3.49197 29122 ft 402 kts 165°
2026-04-30 09:02 45.78099 3.52604 29117 ft 402 kts 163°
2026-04-30 09:02 45.72757 3.54956 29115 ft 401 kts 163°
2026-04-30 09:03 45.67414 3.57268 29116 ft 401 kts 163°
2026-04-30 09:03 45.62074 3.59557 29129 ft 400 kts 163°
2026-04-30 09:04 45.56745 3.61829 29126 ft 399 kts 164°
2026-04-30 09:04 45.51462 3.64077 29129 ft 399 kts 164°
2026-04-30 09:05 45.46147 3.66343 29128 ft 399 kts 163°
2026-04-30 09:05 45.40829 3.68614 29123 ft 399 kts 163°
2026-04-30 09:06 45.35509 3.70880 29090 ft 399 kts 163°
2026-04-30 09:06 45.32872 3.71998 28811 ft 393 kts 164°
2026-04-30 09:06 45.30305 3.73097 28536 ft 390 kts 162°
2026-04-30 09:07 45.27827 3.74637 28273 ft 388 kts 151°
2026-04-30 09:07 45.25617 3.76815 28017 ft 388 kts 140°
2026-04-30 09:07 45.23747 3.79557 27750 ft 387 kts 128°
2026-04-30 09:07 45.22238 3.82713 27490 ft 386 kts 123°
2026-04-30 09:08 45.20791 3.85917 27226 ft 385 kts 123°
2026-04-30 09:08 45.19338 3.89107 26969 ft 385 kts 123°
2026-04-30 09:08 45.17882 3.92291 26716 ft 384 kts 123°
2026-04-30 09:08 45.16432 3.95463 26462 ft 383 kts 123°
2026-04-30 09:09 45.15007 3.98583 26219 ft 381 kts 123°
2026-04-30 09:09 45.13569 4.01725 25970 ft 380 kts 123°
2026-04-30 09:09 45.12136 4.04860 25724 ft 378 kts 123°
2026-04-30 09:09 45.10709 4.07978 25479 ft 378 kts 124°
2026-04-30 09:10 45.09280 4.11095 25234 ft 377 kts 124°
2026-04-30 09:10 45.07854 4.14199 24993 ft 376 kts 124°
2026-04-30 09:10 45.06432 4.17288 24765 ft 374 kts 124°
2026-04-30 09:10 45.05011 4.20357 24532 ft 372 kts 126°
2026-04-30 09:11 45.03396 4.23136 24291 ft 370 kts 136°
2026-04-30 09:11 45.01427 4.25464 24062 ft 368 kts 147°
2026-04-30 09:11 44.99237 4.27324 23834 ft 368 kts 151°
2026-04-30 09:11 44.97027 4.29131 23583 ft 367 kts 151°
2026-04-30 09:12 44.94826 4.30937 23308 ft 365 kts 151°
2026-04-30 09:12 44.92631 4.32740 23042 ft 364 kts 151°
2026-04-30 09:12 44.90449 4.34537 22775 ft 363 kts 152°
2026-04-30 09:12 44.88272 4.36324 22506 ft 361 kts 152°
2026-04-30 09:13 44.86108 4.38095 22242 ft 359 kts 151°
2026-04-30 09:13 44.83978 4.39838 21984 ft 358 kts 151°
2026-04-30 09:13 44.81832 4.41594 21724 ft 356 kts 151°
2026-04-30 09:13 44.79693 4.43344 21471 ft 355 kts 151°
2026-04-30 09:14 44.77562 4.45085 21215 ft 354 kts 151°
2026-04-30 09:14 44.75437 4.46818 20962 ft 352 kts 151°
2026-04-30 09:14 44.73321 4.48538 20713 ft 351 kts 151°
2026-04-30 09:14 44.71211 4.50248 20463 ft 350 kts 151°
2026-04-30 09:15 44.69108 4.51956 20217 ft 348 kts 151°
2026-04-30 09:15 44.66989 4.53485 19971 ft 346 kts 159°
2026-04-30 09:15 44.64697 4.54460 19728 ft 344 kts 168°
2026-04-30 09:15 44.62361 4.55181 19493 ft 343 kts 168°
2026-04-30 09:16 44.60035 4.55904 19259 ft 342 kts 168°
2026-04-30 09:16 44.57716 4.56625 19020 ft 341 kts 168°
2026-04-30 09:16 44.55401 4.57347 18786 ft 340 kts 168°
2026-04-30 09:16 44.53091 4.58072 18544 ft 342 kts 168°
2026-04-30 09:17 44.50773 4.58796 18295 ft 341 kts 168°
2026-04-30 09:17 44.48495 4.59504 18026 ft 339 kts 168°
2026-04-30 09:17 44.46202 4.60220 17762 ft 337 kts 168°
2026-04-30 09:17 44.43919 4.60937 17500 ft 336 kts 168°
2026-04-30 09:18 44.41644 4.61648 17238 ft 334 kts 168°
2026-04-30 09:18 44.39381 4.62351 16979 ft 333 kts 168°
2026-04-30 09:18 44.37125 4.63049 16723 ft 331 kts 168°
2026-04-30 09:18 44.34879 4.63740 16468 ft 330 kts 168°
2026-04-30 09:19 44.32644 4.64429 16218 ft 328 kts 168°
2026-04-30 09:19 44.30406 4.65014 15965 ft 326 kts 175°
2026-04-30 09:19 44.28152 4.65343 15720 ft 325 kts 175°
2026-04-30 09:19 44.25941 4.65665 15499 ft 324 kts 175°
2026-04-30 09:20 44.23703 4.65992 15168 ft 322 kts 175°
2026-04-30 09:20 44.21478 4.66313 14822 ft 321 kts 175°
2026-04-30 09:20 44.19264 4.66631 14471 ft 319 kts 175°
2026-04-30 09:20 44.17059 4.66946 14123 ft 317 kts 175°
2026-04-30 09:21 44.14869 4.67261 13766 ft 316 kts 175°
2026-04-30 09:21 44.12692 4.67599 13400 ft 314 kts 171°
2026-04-30 09:21 44.10601 4.68420 13060 ft 312 kts 159°
2026-04-30 09:21 44.08596 4.69565 12715 ft 310 kts 159°
2026-04-30 09:22 44.06602 4.70689 12381 ft 308 kts 159°
2026-04-30 09:22 44.04648 4.71782 12055 ft 306 kts 159°
2026-04-30 09:22 44.02678 4.72882 11720 ft 304 kts 159°
2026-04-30 09:22 44.00723 4.73972 11391 ft 302 kts 159°
2026-04-30 09:23 43.98776 4.75057 11060 ft 300 kts 159°
2026-04-30 09:23 43.96848 4.76137 10750 ft 297 kts 159°
2026-04-30 09:23 43.94948 4.77207 10464 ft 293 kts 159°
2026-04-30 09:23 43.93063 4.78271 10102 ft 291 kts 159°
2026-04-30 09:24 43.91195 4.79325 9757 ft 288 kts 159°
2026-04-30 09:24 43.89346 4.80360 9438 ft 285 kts 159°
2026-04-30 09:24 43.87540 4.81368 9129 ft 282 kts 159°
2026-04-30 09:24 43.85727 4.82381 8824 ft 280 kts 159°
2026-04-30 09:25 43.83932 4.83388 8518 ft 277 kts 159°
2026-04-30 09:25 43.82150 4.84386 8221 ft 275 kts 159°
2026-04-30 09:25 43.80388 4.85371 7931 ft 270 kts 158°
2026-04-30 09:25 43.78661 4.86338 7627 ft 265 kts 158°
2026-04-30 09:26 43.76963 4.87293 7279 ft 261 kts 158°
2026-04-30 09:26 43.75314 4.88220 6978 ft 251 kts 158°
2026-04-30 09:26 43.73726 4.89111 6695 ft 242 kts 158°
2026-04-30 09:26 43.72214 4.89960 6404 ft 234 kts 158°
2026-04-30 09:27 43.70724 4.90795 6077 ft 227 kts 157°
2026-04-30 09:27 43.69282 4.91611 5759 ft 221 kts 156°
2026-04-30 09:27 43.67875 4.92413 5453 ft 216 kts 156°
2026-04-30 09:27 43.66506 4.93195 5162 ft 210 kts 156°
2026-04-30 09:28 43.65173 4.93957 4858 ft 204 kts 156°
2026-04-30 09:28 43.63877 4.94697 4554 ft 199 kts 155°
2026-04-30 09:28 43.62617 4.95414 4261 ft 194 kts 155°
2026-04-30 09:28 43.61452 4.96272 4046 ft 188 kts 139°
2026-04-30 09:29 43.60509 4.97462 4003 ft 179 kts 133°
2026-04-30 09:29 43.59645 4.98666 4026 ft 173 kts 133°
2026-04-30 09:29 43.58827 4.99831 3883 ft 167 kts 132°
2026-04-30 09:29 43.58029 5.00974 3699 ft 165 kts 132°
2026-04-30 09:30 43.57235 5.02111 3490 ft 164 kts 132°
2026-04-30 09:30 43.56450 5.03236 3283 ft 159 kts 132°
2026-04-30 09:30 43.55696 5.04317 3080 ft 155 kts 132°
2026-04-30 09:30 43.54965 5.05365 2876 ft 154 kts 133°
2026-04-30 09:31 43.54222 5.06429 2676 ft 154 kts 133°
2026-04-30 09:31 43.53482 5.07489 2461 ft 150 kts 133°
2026-04-30 09:31 43.52787 5.08483 2274 ft 140 kts 132°
2026-04-30 09:31 43.52127 5.09426 2107 ft 133 kts 132°
2026-04-30 09:32 43.51490 5.10337 1924 ft 131 kts 133°
2026-04-30 09:32 43.50856 5.11244 1748 ft 131 kts 133°
2026-04-30 09:32 43.50220 5.12153 1578 ft 132 kts 133°
2026-04-30 09:32 43.49592 5.13050 1395 ft 132 kts 133°
2026-04-30 09:33 43.48954 5.13963 1181 ft 133 kts 134°
2026-04-30 09:33 43.48308 5.14871 963 ft 133 kts 134°
2026-04-30 09:33 43.47659 5.15793 792 ft 135 kts 134°
2026-04-30 09:33 43.47000 5.16727 617 ft 138 kts 136°
2026-04-30 09:34 43.46338 5.17696 482 ft 140 kts 135°
2026-04-30 09:34 43.45663 5.18678 323 ft 143 kts 137°
2026-04-30 09:34 43.44964 5.19663 157 ft 145 kts 135°
2026-04-30 09:34 43.44282 5.20636 42 ft 136 kts 135°
2026-04-30 09:35 43.43745 5.21400 37 ft 80 kts 134°
2026-04-30 09:35 43.43484 5.21770 35 ft 32 kts 135°
2026-04-30 09:35 43.43370 5.21935 35 ft 13 kts 132°
2026-04-30 09:35 43.43335 5.22037 35 ft 11 kts 98°
2026-04-30 09:36 43.43333 5.22129 37 ft 9 kts 89°
2026-04-30 09:36 43.43336 5.22210 37 ft 8 kts 80°
2026-04-30 09:36 43.43366 5.22269 36 ft 7 kts 35°
2026-04-30 09:36 43.43412 5.22284 37 ft 6 kts 358°
2026-04-30 09:37 43.43449 5.22263 36 ft 7 kts 330°
2026-04-30 09:37 43.43507 5.22217 37 ft 11 kts 330°
2026-04-30 09:37 43.43576 5.22161 37 ft 12 kts 329°
2026-04-30 09:37 43.43647 5.22104 37 ft 8 kts 333°
2026-04-30 09:38 43.43690 5.22121 36 ft 6 kts 52°
2026-04-30 09:38 43.43713 5.22169 37 ft 6 kts 47°
2026-04-30 09:38 43.43741 5.22206 37 ft 5 kts 44°
2026-04-30 09:38 43.43768 5.22236 37 ft 4 kts 22°
2026-04-30 09:39 43.43802 5.22226 37 ft 5 kts 342°
2026-04-30 09:39 43.43831 5.22219 37 ft 4 kts
2026-04-30 09:39 43.43846 5.22240 36 ft 3 kts 58°
2026-04-30 09:39 43.43858 5.22286 37 ft 4 kts 73°
2026-04-30 09:40 43.43862 5.22305 37 ft 0 kts 73°
2026-04-30 09:48 43.43862 5.22304 38 ft 0 kts 73°